• MPC Preparation (Info)

  • MPEC 2016-D42 : 2014 VN6

    The following Minor Planet Electronic Circular may be linked-to from your own Web pages, but must not otherwise be redistributed electronically.

    A form allowing access to any MPEC is at the bottom of this page.


    Read MPEC 2016-D41 Read MPEC 2016-D43


    M.P.E.C. 2016-D42                                Issued 2016 Feb. 24, 17:27 UT
    
         The Minor Planet Electronic Circulars contain information on unusual
             minor planets and routine data on comets.  They are published
        on behalf of Division F of the International Astronomical Union by the
              Minor Planet Center, Smithsonian Astrophysical Observatory,
                              Cambridge, MA 02138, U.S.A.
    
                 Prepared using the Tamkin Foundation Computer Network
    
                                  MPC@CFA.HARVARD.EDU
                URL https://www.minorplanetcenter.net/    ISSN 1523-6714
    
                                       2014 VN6
    
                               Revision to MPEC 2014-V50
    
    Additional Observations:
         K14V06N 2C2016 02 05.49730310 10 24.420+54 48 14.03         23.5 RtED042568
         K14V06N 2C2016 02 05.50623010 10 23.472+54 48 16.56         23.3 RtED042568
         K14V06N 2C2016 02 09.45904910 03 27.363+55 03 28.04         23.7 RtED042568
         K14V06N 2C2016 02 09.46784110 03 26.399+55 03 29.64         23.5 RtED042568
    
    Observer details:
    568 Mauna Kea.  Observers Y. Ramanjooloo, D. Hung.  Measurer D. J. Tholen.
        2.24-m University of Hawaii reflector.
    
    First and last observations above in comparison with prediction:
    Residuals in seconds of arc, reference and Delta-T
    160205 568  8.3-  3.6+    160209 568  8.3-  3.4+    MPO318681   +0.0024 day
    
    Orbital elements:
    2014 VN6                                                 Earth MOID = 0.4250 AU
    Epoch 2016 Jan. 13.0 TT = JDT 2457400.5                 MPC
    M 158.15199              (2000.0)            P               Q
    n   0.31040494     Peri.  293.03358     +0.68993252     +0.69420207
    a   2.1603144      Node    24.65892     -0.33844095     +0.55984281
    e   0.4212479      Incl.   29.44937     -0.63988346     +0.45239310
    P   3.18           H   19.0           G   0.15           U   3
    Residuals in seconds of arc
    141110 F51  0.3-  0.0     141113 807  0.2+  0.4-    141118 F51  0.0   0.2+
    141110 F51  0.1-  0.1+    141113 807  0.3-  0.4-    141118 F51  0.1+  0.1-
    141110 F51  0.0   0.2+    141114 H36 (0.8-  1.6-)   141120 291  0.2-  0.0
    141110 F51  0.0   0.1-    141114 H36  0.4-  0.7+    141120 291  0.3-  0.0
    141111 807  0.4+  0.3-    141114 807  0.4-  0.1-    141120 291  0.1-  0.0
    141111 807  0.6+  0.1-    141114 H36 (0.2+  2.7+)   141121 291  0.6-  0.5-
    141111 807  0.0   0.2-    141114 807  0.4-  0.2+    141121 291  0.2+  0.8+
    141111 807  0.1+  0.1-    141114 807  0.5-  0.1+    141121 291  0.8-  0.2+
    141111 807  0.1-  0.0     141114 807  0.2-  0.3+    141123 291  0.1-  0.1+
    141111 711  0.6+  1.3-    141114 807  0.3-  0.0     141123 291  0.2-  0.1-
    141111 711  0.9+  1.0-    141115 807  0.1+  0.4-    141123 291  1.3+  0.8+
    141111 711  0.6+  0.5-    141115 807  0.2+  0.1+    141124 291  0.2+  0.1+
    141111 291  0.3+  0.3+    141115 807  0.3-  0.0     141124 291  0.0   0.1+
    141111 291  0.1+  0.2+    141115 807  0.4-  0.0     141124 291  0.2+  0.1-
    141111 291  0.2+  0.7+    141115 807  0.1-  0.1+    141126 F51  0.0   0.1-
    141112 807  0.1+  0.1-    141115 H21  0.5-  0.4-    141126 F51  0.0   0.0
    141112 807  0.2-  0.3-    141115 H21  0.3-  0.1-    141126 F51  0.0   0.1+
    141112 807  0.0   0.2-    141115 H21  0.4-  0.4-    141126 F51  0.0   0.1+
    141112 291  0.3-  0.1-    141117 807  0.1+  0.4+    141211 291  0.2-  0.0
    141112 291  0.2-  0.6+    141117 807  0.0   0.2+    141211 291  0.0   0.1-
    141112 291  0.4+  0.3+    141117 807  0.0   0.0     141211 291  0.0   0.2-
    141112 711  0.3+  0.0     141117 807  0.3+  0.5-    160205 568  0.0   0.0
    141112 711  0.0   1.2-    141117 291  0.0   0.4-    160205 568  0.0   0.1+
    141112 711 (0.6+  1.6-)   141117 291  0.3-  0.3+    160209 568  0.0   0.0
    141113 807  0.2+  0.1-    141118 F51  0.3+  0.3-    160209 568  0.0   0.0
    
    Ephemeris:
    2014 VN6                 a,e,i = 2.16, 0.42, 29                  q = 1.2503
    Date    TT    R. A. (2000) Decl.     Delta      r     Elong.  Phase     V
    2016 01 25    10 28 37.2 +53 33 15   2.2411  3.0478   138.4    12.4    23.9
    ...
    2016 02 09    10 04 16.4 +55 01 58   2.2413  3.0579   139.3    12.1    23.9
    ...
    2016 02 17    09 49 57.4 +55 15 21   2.2641  3.0621   137.0    12.7    24.0
    ...
    2016 02 23    09 39 29.6 +55 08 40   2.2911  3.0646   134.3    13.4    24.0
    2016 02 24    09 37 48.5 +55 06 12   2.2964  3.0650   133.7    13.5    24.0
    2016 02 25    09 36 08.7 +55 03 22   2.3019  3.0654   133.2    13.6    24.0
    ...
    2016 03 02    09 26 43.2 +54 38 46   2.3394  3.0673   129.6    14.4    24.1
    ...
    2016 03 10    09 16 00.1 +53 47 53   2.4004  3.0692   124.1    15.5    24.2
    ...
    2016 03 25    09 02 48.7 +51 31 14   2.5429  3.0703   112.8    17.4    24.4
    
    A. U. Tomatic                (C) Copyright 2016 MPC           M.P.E.C. 2016-D42
    

    Read MPEC 2016-D41 Read MPEC 2016-D43


    MPEC number:

    Enter an MPEC number in one of the following forms:

    • 1997-B01 (the full form)
    • J97B01 (the packed version of the full form)
    • B01 (the abbreviated form)